User: anonymous   Login
Location: Newark
(50.8086°N, 4.3114°E)
Time: 15:48:44
(UTC+00:00)
Language:

XW-2D - Orbit

View from above orbital plane
View from above orbital plane
View from above satellite
View from above satellite

Ground track
Ground track

The orbit data is extracted from the following two-line orbital elements,

1 40907U 15049J   20018.10654584  .00000397  00000-0  24009-4 0  9991
2 40907  97.4716  21.4281 0014091 169.7321 262.8016 15.16107257239349
Epoch (UTC): 18 January 2020 02:33:25
Eccentricity: 0.0014091
inclination: 97.4716°
perigee height: 508 km
apogee height: 527 km
right ascension of ascending node: 21.4281°
argument of perigee: 169.7321°
revolutions per day: 15.16107257
mean anomaly at epoch: 262.8016°
orbit number at epoch: 23934

The dashed part of the orbit path shows where the satellite is in the earth's shadow,  

DLR